Weather History for Audubon, IA

Change the Weather History Date:

Thursday, August 23, 2012

  Actual Average Record
Temperature  
Mean Temperature 73 °F -  
Max Temperature 89 °F 83 °F 96 °F (1968)
Min Temperature 57 °F 60 °F 43 °F (1966)
Cooling Degree Days 8    
Growing Degree Days 23 (Base 50)    
Moisture  
Dew Point 54 °F    
Average Humidity 50    
Maximum Humidity 82    
Minimum Humidity 29    
Precipitation  
Precipitation 0.00 in - - ()
Sea Level Pressure  
Sea Level Pressure 29.95 in    
Wind  
Wind Speed 7 mph (South)    
Max Wind Speed 22 mph    
Max Gust Speed 33 mph    
Visibility 10 miles    
Events      
Averages and records for this station are not official NWS values.
T = Trace of Precipitation, MM = Missing Value Source: NWS Daily Summary

Daily Weather History Graph

Daily Weather History Graph

Search for Another Location

Airport:

Trip Planner

Search our weather history database for the weather conditions in past years. The results will help you decide how hot, cold, wet, or windy it might be!

Date:

Astronomy

Aug. 23, 2012 Rise Set
Actual Time 6:36 AM CDT 8:06 PM CDT
Civil Twilight 6:07 AM CDT 8:35 PM CDT
Nautical Twilight 5:32 AM CDT 9:10 PM CDT
Astronomical Twilight 4:55 AM CDT 9:47 PM CDT
Moon 1:32 PM CDT (8/23) 11:28 PM CDT (8/23)
Length of Visible Light 14h 28m
Length of Day
13h 29m
Waxing Crescent, 40% of the Moon is Illuminated
Aug 23
Waxing Crescent
Aug 24
First Quarter
Aug 31
Full
Sep 8
Last Quarter
Sep 15
New

Hourly Weather History & Observations

Time (CDT) Temp. Heat Index Dew Point Humidity Pressure Visibility Wind Dir Wind Speed Gust Speed Precip Events Conditions
12:15 AM 64.4 °F - 53.6 °F 68% 29.96 in 10.0 mi South 3.5 mph - N/A   Unknown
12:35 AM 62.6 °F - 53.6 °F 72% 29.96 in 10.0 mi SSE 3.5 mph - N/A   Unknown
12:55 AM 64.4 °F - 53.6 °F 68% 29.96 in 10.0 mi South 4.6 mph - N/A   Unknown
1:15 AM 69.8 °F - 53.6 °F 56% 29.96 in 10.0 mi South 6.9 mph - N/A   Unknown
1:35 AM 69.8 °F - 51.8 °F 53% 29.96 in 10.0 mi South 4.6 mph - N/A   Unknown
1:55 AM 68.0 °F - 51.8 °F 56% 29.96 in 10.0 mi SSW 4.6 mph - N/A   Unknown
2:15 AM 68.0 °F - 51.8 °F 56% 29.96 in 10.0 mi SSW 4.6 mph - N/A   Unknown
2:35 AM 62.6 °F - 50.0 °F 63% 29.96 in 10.0 mi Calm Calm - N/A   Unknown
2:55 AM 60.8 °F - 51.8 °F 72% 29.96 in 10.0 mi SSE 3.5 mph - N/A   Unknown
3:15 AM 60.8 °F - 51.8 °F 72% 29.96 in 10.0 mi Calm Calm - N/A   Unknown
3:35 AM 60.8 °F - 51.8 °F 72% 29.97 in 10.0 mi SSE 3.5 mph - N/A   Unknown
3:55 AM 60.8 °F - 51.8 °F 72% 29.97 in 10.0 mi Calm Calm - N/A   Unknown
4:15 AM 57.2 °F - 50.0 °F 77% 29.97 in 10.0 mi Calm Calm - N/A   Unknown
4:35 AM 57.2 °F - 51.8 °F 82% 29.97 in 10.0 mi Calm Calm - N/A   Unknown
4:55 AM 60.8 °F - 51.8 °F 72% 29.97 in 10.0 mi SSE 4.6 mph - N/A   Unknown
5:15 AM 64.4 °F - 53.6 °F 68% 29.97 in 10.0 mi South 6.9 mph - N/A   Unknown
5:35 AM 66.2 °F - 51.8 °F 60% 29.97 in 10.0 mi South 6.9 mph - N/A   Unknown
5:55 AM 66.2 °F - 51.8 °F 60% 29.97 in 10.0 mi South 8.1 mph - N/A   Unknown
6:15 AM 66.2 °F - 51.8 °F 60% 29.98 in 10.0 mi South 8.1 mph - N/A   Unknown
6:35 AM 64.4 °F - 50.0 °F 59% 29.98 in 10.0 mi South 5.8 mph - N/A   Unknown
6:55 AM 60.8 °F - 50.0 °F 68% 29.99 in 10.0 mi Calm Calm - N/A   Unknown
7:15 AM 62.6 °F - 51.8 °F 68% 29.99 in 10.0 mi Calm Calm - N/A   Unknown
7:35 AM 64.4 °F - 53.6 °F 68% 29.99 in 10.0 mi Calm Calm - N/A   Unknown
7:55 AM 66.2 °F - 55.4 °F 68% 29.99 in 10.0 mi South 4.6 mph - N/A   Unknown
8:15 AM 71.6 °F - 53.6 °F 53% 29.99 in 10.0 mi SSW 9.2 mph - N/A   Unknown
8:35 AM 73.4 °F - 53.6 °F 50% 30.00 in 10.0 mi SSW 11.5 mph - N/A   Unknown
8:55 AM 73.4 °F - 53.6 °F 50% 29.99 in 10.0 mi South 9.2 mph - N/A   Unknown
9:15 AM 75.2 °F - 55.4 °F 50% 29.99 in 10.0 mi SSW 13.8 mph 18.4 mph N/A   Unknown
9:35 AM 77.0 °F - 55.4 °F 47% 29.99 in 10.0 mi SSW 13.8 mph 20.7 mph N/A   Unknown
9:55 AM 78.8 °F - 57.2 °F 47% 29.99 in 10.0 mi SSW 13.8 mph 20.7 mph N/A   Unknown
10:15 AM 80.6 °F 80.8 °F 57.2 °F 45% 29.99 in 10.0 mi SSW 15.0 mph 23.0 mph N/A   Unknown
10:35 AM 80.6 °F 81.1 °F 59.0 °F 48% 29.99 in 10.0 mi SSW 17.3 mph 20.7 mph N/A   Unknown
10:55 AM 82.4 °F 82.9 °F 60.8 °F 48% 29.99 in 10.0 mi SSW 13.8 mph 24.2 mph N/A   Unknown
11:15 AM 84.2 °F 84.4 °F 60.8 °F 45% 29.99 in 10.0 mi SSW 16.1 mph 23.0 mph N/A   Unknown
11:35 AM 84.2 °F 83.8 °F 59.0 °F 42% 29.98 in 10.0 mi South 12.7 mph 26.5 mph N/A   Unknown
11:55 AM 84.2 °F 83.0 °F 55.4 °F 37% 29.97 in 10.0 mi SSW 21.9 mph 27.6 mph N/A   Unknown
12:15 PM 86.0 °F 84.5 °F 55.4 °F 35% 29.97 in 10.0 mi South 19.6 mph 27.6 mph N/A   Unknown
12:35 PM 86.0 °F 84.5 °F 55.4 °F 35% 29.97 in 10.0 mi SSW 17.3 mph 29.9 mph N/A   Unknown
12:55 PM 87.8 °F 85.7 °F 53.6 °F 31% 29.95 in 10.0 mi South 21.9 mph 32.2 mph N/A   Unknown
1:15 PM 87.8 °F 85.7 °F 53.6 °F 31% 29.95 in 10.0 mi SSW 18.4 mph 28.8 mph N/A   Unknown
1:35 PM 87.8 °F 85.7 °F 53.6 °F 31% 29.94 in 10.0 mi SSW 18.4 mph 29.9 mph N/A   Unknown
1:55 PM 87.8 °F 85.7 °F 53.6 °F 31% 29.94 in 10.0 mi SSW 17.3 mph 29.9 mph N/A   Unknown
2:15 PM 89.6 °F 87.3 °F 53.6 °F 29% 29.94 in 10.0 mi South 18.4 mph 27.6 mph N/A   Unknown
2:35 PM 87.8 °F 85.7 °F 53.6 °F 31% 29.94 in 10.0 mi South 17.3 mph 27.6 mph N/A   Unknown
2:55 PM 86.0 °F 84.2 °F 53.6 °F 33% 29.93 in 10.0 mi South 16.1 mph 27.6 mph N/A   Unknown
3:15 PM 87.8 °F - 51.8 °F 29% 29.93 in 10.0 mi South 18.4 mph 33.4 mph N/A   Unknown
3:35 PM 86.0 °F 84.2 °F 53.6 °F 33% 29.93 in 10.0 mi SSW 17.3 mph 23.0 mph N/A   Unknown
3:55 PM 89.6 °F 87.3 °F 53.6 °F 29% 29.92 in 10.0 mi South 17.3 mph 24.2 mph N/A   Unknown
4:15 PM 87.8 °F 85.7 °F 53.6 °F 31% 29.92 in 10.0 mi SSW 18.4 mph 25.3 mph N/A   Unknown
4:35 PM 87.8 °F - 51.8 °F 29% 29.92 in 10.0 mi South 17.3 mph 21.9 mph N/A   Unknown
4:55 PM 87.8 °F - 51.8 °F 29% 29.91 in 10.0 mi SSW 20.7 mph 28.8 mph N/A   Unknown
5:15 PM 87.8 °F - 51.8 °F 29% 29.92 in 10.0 mi South 17.3 mph 24.2 mph N/A   Unknown
5:35 PM 86.0 °F - 51.8 °F 31% 29.91 in 10.0 mi South 16.1 mph 23.0 mph N/A   Unknown
5:55 PM 86.0 °F - 51.8 °F 31% 29.91 in 10.0 mi South 12.7 mph 21.9 mph N/A   Unknown
6:15 PM 86.0 °F - 51.8 °F 31% 29.91 in 10.0 mi South 12.7 mph 17.3 mph N/A   Unknown
6:35 PM 86.0 °F - 51.8 °F 31% 29.91 in 10.0 mi South 12.7 mph 17.3 mph N/A   Unknown
6:55 PM 84.2 °F - 51.8 °F 33% 29.90 in 10.0 mi South 10.4 mph - N/A   Unknown
7:15 PM 84.2 °F - 51.8 °F 33% 29.90 in 10.0 mi South 10.4 mph - N/A   Unknown
7:35 PM 82.4 °F 81.4 °F 53.6 °F 37% 29.90 in 10.0 mi South 5.8 mph - N/A   Unknown
7:55 PM 82.4 °F 81.4 °F 53.6 °F 37% 29.89 in 10.0 mi South 5.8 mph - N/A   Unknown
8:15 PM 78.8 °F - 53.6 °F 42% 29.89 in 10.0 mi Calm Calm - N/A   Unknown
8:35 PM 75.2 °F - 53.6 °F 47% 29.90 in 10.0 mi Calm Calm - N/A   Unknown
8:55 PM 71.6 °F - 55.4 °F 57% 29.91 in 10.0 mi Calm Calm - N/A   Unknown
9:15 PM 71.6 °F - 57.2 °F 60% 29.92 in 10.0 mi Calm Calm - N/A   Unknown
9:35 PM 71.6 °F - 59.0 °F 64% 29.91 in 10.0 mi SSE 3.5 mph - N/A   Unknown
9:55 PM 69.8 °F - 57.2 °F 64% 29.92 in 10.0 mi Calm Calm - N/A   Unknown
10:15 PM 69.8 °F - 57.2 °F 64% 29.91 in 10.0 mi Calm Calm - N/A   Unknown
10:35 PM 69.8 °F - 57.2 °F 64% 29.91 in 10.0 mi South 3.5 mph - N/A   Unknown
10:55 PM 71.6 °F - 55.4 °F 57% 29.92 in 10.0 mi Calm Calm - N/A   Unknown
11:15 PM 75.2 °F - 55.4 °F 50% 29.91 in 10.0 mi South 5.8 mph - N/A   Unknown
11:35 PM 75.2 °F - 53.6 °F 47% 29.91 in 10.0 mi South 5.8 mph - N/A   Unknown
11:55 PM 77.0 °F - 51.8 °F 41% 29.91 in 10.0 mi South 8.1 mph - N/A   Unknown